Temperature
31 32 32 32 32 33 32 32 32 32 32 32 32 31 31 31 30 29 28 27 25 25 24 23 23 23 22 22 21 21 21 20 20 20 20 20 19 19 19 19 18 19 18 18
29 31 31 31 32 32 32 32 32 32 32 32 31 31 30 30 29 29 27 26 25 24 24 23 23 22 22 22 21 21 21 20 20 20 20 20 20 19 19 19 19 18 18 18
28 30 30 30 31 32 32 33 32 32 32 32 31 31 30 29 29 28 27 26 25 24 23 23 22 22 22 21 21 21 20 20 20 20 20 20 19 19 19 19 18 18 18 18
28 28 27 30 32 32 32 32 33 32 32 32 31 30 29 29 28 27 27 26 25 24 23 22 22 22 21 21 21 21 20 20 20 20 19 19 19 19 19 19 18 18 18 18
27 27 28 30 31 31 31 30 32 31 31 31 30 29 28 28 27 26 26 25 25 24 23 22 22 21 21 21 21 20 20 20 20 20 19 19 19 19 18 18 18 18 18 18
26 26 27 29 31 31 31 29 30 31 30 30 29 29 27 27 26 25 25 25 24 24 23 22 21 21 21 21 20 20 20 20 20 19 19 19 19 18 18 18 18 17 17 17
26 26 27 29 30 30 28 27 28 29 29 28 28 27 26 26 25 25 24 24 24 23 23 22 21 21 20 20 20 20 19 19 19 19 19 19 18 18 18 18 17 17 17 17
25 25 26 29 29 28 26 26 27 27 27 27 26 26 25 24 24 24 23 23 23 22 22 22 21 21 20 20 20 19 19 19 19 18 18 18 18 18 18 17 17 17 17 17
26 26 26 27 26 25 25 25 25 25 25 25 25 24 24 23 23 23 22 22 22 22 21 21 21 20 20 20 19 19 19 18 18 18 18 17 18 18 17 17 17 17 17 17
25 26 26 26 25 25 24 25 24 24 24 24 24 23 23 22 22 22 21 21 21 21 20 20 20 20 20 19 19 18 18 18 17 17 17 17 17 17 17 17 17 17 17 16
24 25 25 25 24 24 24 24 24 24 24 23 23 22 22 21 21 21 20 20 20 20 20 20 20 19 19 19 18 18 18 17 17 17 17 17 17 17 17 17 17 17 17 16
23 24 24 24 23 23 23 23 23 23 23 22 22 21 21 21 20 20 20 19 19 19 19 19 19 19 18 18 18 18 17 17 17 17 17 16 17 17 17 17 17 17 17 16
22 22 22 22 22 22 22 22 22 22 21 21 21 20 20 20 19 19 19 19 19 18 18 18 18 18 18 18 17 17 17 17 17 16 16 16 16 16 16 16 16 16 16 16
21 21 21 21 21 21 21 21 21 21 21 20 20 20 19 19 18 18 18 18 18 18 18 18 18 17 17 17 17 17 17 16 17 16 16 16 16 16 16 16 16 16 16 16
20 20 20 20 20 20 20 20 20 20 20 19 19 19 18 18 18 17 17 17 17 17 17 17 17 17 17 16 16 16 16 16 16 16 16 16 16 16 16 16 15 15 15 15
19 19 20 20 19 19 19 19 19 19 19 19 18 18 18 18 17 17 17 17 17 17 17 16 16 16 16 16 16 16 16 16 16 16 16 16 16 16 15 15 15 15 15 15
19 19 19 19 19 19 19 19 18 18 18 18 17 17 17 17 17 16 16 16 16 16 16 16 16 16 16 16 15 15 15 15 15 15 15 15 15 15 15 15 15 15 14 14
18 18 18 18 18 18 18 18 17 17 17 16 16 16 16 16 16 16 16 16 16 16 16 16 16 15 15 15 15 15 15 15 15 15 15 15 15 15 15 15 15 14 14 14
17 17 17 17 17 17 16 16 16 16 16 16 16 16 16 15 15 15 15 15 15 15 15 15 15 15 15 15 15 15 15 15 15 15 15 15 15 15 15 15 14 14 14 13
17 16 16 16 16 16 16 16 15 15 15 15 15 15 15 15 15 15 15 15 15 15 15 15 15 15 14 14 14 14 14 14 14 14 14 14 14 14 14 14 14 14 13 13
16 16 16 15 15 15 15 15 15 15 15 15 15 15 15 15 14 14 14 14 15 15 15 15 14 14 14 14 14 14 14 14 14 14 14 14 14 14 14 14 13 13 13 13
15 15 15 15 15 15 14 14 14 14 14 14 14 14 14 14 14 14 14 14 14 15 14 14 14 14 14 14 14 14 14 14 14 13 13 13 14 13 13 13 13 13 13 12
14 14 14 14 14 14 14 14 14 14 14 14 14 14 14 14 14 14 14 14 14 14 14 14 14 14 14 13 13 13 13 13 13 13 13 13 13 13 13 13 12 12 12 12
13 13 14 14 14 14 13 14 14 14 14 14 14 14 13 14 14 14 14 14 14 14 13 13 13 13 13 13 13 13 13 12 12 13 13 13 13 13 13 13 12 12 12 12
13 13 13 13 13 13 13 14 14 13 13 14 13 13 13 13 13 13 13 13 13 13 13 13 13 13 12 12 12 12 12 12 12 12 12 12 12 12 12 12 12 12 12 11
13 13 13 13 13 13 13 14 14 13 13 13 13 13 13 13 13 13 13 13 13 12 12 12 12 12 12 12 12 12 12 12 12 12 12 12 12 12 12 12 12 12 11 11
13 13 13 13 13 14 14 14 13 13 13 13 13 13 13 13 12 12 12 12 12 12 12 12 12 12 12 12 12 12 12 12 12 11 11 11 11 11 11 11 11 11 11 11
Wind_Speed
14 14 12 12 12 13 13 12 12 10 7 5 5 4 5 6 6 7 7 8 8 8 7 7 6 5 5 5 5 5 5 5 5 5 5 5 5 5 5 5 5 4 4 4
15 15 14 14 14 14 14 13 13 11 7 1 4 4 5 5 5 7 7 7 8 8 7 7 6 5 4 4 4 4 5 5 5 5 5 5 5 5 5 5 4 4 4 4
14 15 15 17 15 15 13 13 13 12 7 5 4 4 4 4 4 4 5 6 6 7 6 6 6 5 5 5 5 5 5 5 4 4 4 5 6 5 5 5 4 4 4 4
13 14 17 13 11 12 13 12 10 8 5 3 2 4 4 4 5 4 3 4 6 6 6 5 5 5 5 5 5 5 5 4 4 5 5 5 4 5 5 4 4 4 4 4
12 15 16 13 11 10 9 9 7 6 3 2 1 2 2 3 4 4 4 3 4 5 6 6 5 4 4 5 5 4 4 4 4 5 4 4 5 5 4 4 4 4 4 4
12 14 15 10 8 7 7 8 5 4 2 1 2 4 1 3 5 5 4 3 3 4 4 6 5 5 5 5 4 4 4 3 4 4 4 4 4 4 4 4 4 4 4 4
15 15 12 7 5 6 9 4 2 3 1 0 1 2 4 5 5 4 3 2 3 3 3 4 5 5 5 5 4 4 3 3 3 3 3 4 3 3 3 4 4 4 4 4
14 15 11 3 4 2 2 4 5 5 4 3 4 4 4 4 4 4 3 2 1 2 2 4 5 5 5 4 3 3 3 3 3 3 4 4 3 3 4 4 4 4 4 4
6 6 0 4 5 5 3 3 3 4 4 3 3 2 2 2 2 2 2 3 1 0 1 2 3 4 4 4 3 3 4 4 3 4 4 3 4 5 5 5 6 6 5 5
3 3 1 0 2 2 2 1 1 2 2 2 2 2 3 2 2 2 2 3 3 1 2 2 3 4 4 3 4 4 5 4 4 4 5 5 4 5 6 6 6 5 5 4
6 4 4 3 1 1 1 2 2 2 3 2 2 1 1 1 1 2 3 3 3 3 3 3 4 4 4 4 5 5 5 5 6 6 6 5 4 3 5 4 4 5 4 4
5 3 4 3 1 2 3 3 3 3 3 3 2 2 2 2 2 2 3 3 4 4 4 4 4 5 5 5 6 6 6 6 6 6 5 6 5 4 2 3 3 4 4 4
4 6 4 3 3 4 4 4 4 4 4 3 3 3 3 3 3 3 4 5 5 5 5 4 5 5 5 5 6 7 6 6 6 6 6 6 6 5 4 2 1 2 4 5
3 4 4 4 4 4 5 5 5 5 5 4 3 3 4 4 4 5 6 7 6 6 5 5 5 5 5 5 6 7 8 8 7 6 5 6 6 6 5 5 4 3 2 4
5 6 6 5 6 6 6 6 6 6 5 5 5 5 5 5 5 5 6 6 6 6 6 6 6 5 5 6 7 7 7 7 6 6 6 5 5 6 6 6 5 4 4 3
7 7 7 7 7 8 8 8 8 7 7 6 6 6 5 5 6 6 6 6 6 7 6 5 6 5 5 6 6 6 6 8 7 6 6 6 6 6 6 5 5 5 5 4
7 8 8 8 8 9 9 9 9 8 8 8 7 6 6 6 6 7 6 7 6 6 6 5 6 5 5 6 6 6 6 6 8 7 6 6 6 6 5 5 5 4 4 4
7 8 9 8 8 8 9 9 8 8 8 8 7 6 7 7 7 7 7 7 7 6 6 6 5 5 5 5 5 6 5 5 6 6 6 5 5 5 5 4 5 5 4 4
8 8 8 8 8 7 8 8 8 7 6 6 6 7 7 7 6 6 7 7 7 7 5 4 5 6 5 5 5 5 6 6 5 5 5 5 6 5 5 5 5 5 5 4
7 8 8 8 7 7 8 7 8 7 6 6 7 7 7 6 6 6 7 7 7 6 3 3 4 5 5 4 5 6 6 6 6 5 5 5 5 5 5 5 5 5 4 4
6 6 6 7 6 7 7 7 7 7 7 7 7 7 7 6 7 7 7 7 5 3 4 4 4 3 3 3 5 5 5 5 4 4 4 4 4 4 5 4 4 4 4 4
6 6 6 6 5 5 5 5 6 7 7 7 7 7 6 6 7 7 6 5 5 3 3 3 3 1 1 3 4 4 4 4 4 4 4 4 4 4 4 4 4 4 4 3
5 6 6 6 5 5 5 5 6 6 6 6 6 6 6 5 5 6 5 3 3 2 2 2 1 0 2 3 3 3 4 4 4 4 3 4 4 4 4 5 4 4 4 4
6 6 6 6 5 6 5 5 4 4 5 5 4 4 4 4 4 4 3 1 1 2 3 1 0 1 2 3 3 3 3 3 4 3 4 4 5 4 4 4 5 4 4 5
6 6 6 5 5 5 6 6 5 4 5 4 4 3 4 4 4 3 2 2 1 1 2 1 2 2 2 3 2 2 3 3 3 3 3 3 4 4 3 3 4 3 3 4
5 5 5 5 5 5 5 5 4 4 4 3 4 3 3 3 3 2 1 2 2 1 2 2 1 2 2 2 2 3 3 3 3 4 3 3 3 3 2 3 4 4 3 3
5 5 4 5 5 5 5 4 4 4 4 3 3 3 3 2 2 2 2 3 3 2 2 2 3 3 2 2 2 2 2 2 2 2 2 2 2 2 1 2 2 2 3 4
Wind_Direction
255 263 261 246 242 241 245 252 257 265 260 204 163 134 131 136 150 146 145 142 140 145 147 155 158 157 164 165 160 165 171 178 176 177 179 191 198 197 189 195 202 199 208 212
256 254 259 260 256 248 244 248 252 257 266 198 145 142 140 144 151 146 151 158 152 151 148 154 158 163 168 162 159 159 174 178 172 181 187 192 198 198 190 197 197 197 206 212
255 252 250 248 251 254 251 244 251 254 245 208 171 144 143 141 149 152 146 149 144 149 151 157 161 163 172 172 165 172 179 181 181 189 195 195 203 197 199 200 198 204 210 209
252 255 249 251 250 256 259 253 254 260 249 237 194 165 156 147 135 134 134 139 144 153 153 157 160 168 175 174 171 177 182 187 192 197 198 199 202 203 200 199 200 207 214 217
246 247 248 248 245 253 257 256 264 268 274 275 224 132 128 121 113 111 119 118 137 152 163 162 166 168 170 171 173 180 187 194 200 202 202 201 205 209 204 206 209 212 214 215
243 247 249 245 233 241 247 245 268 271 260 285 273 237 158 91 98 100 102 102 131 151 161 157 161 164 177 184 186 195 199 201 204 203 207 217 213 205 202 205 218 219 215 216
241 246 251 263 249 231 236 243 342 333 354 46 317 54 88 78 82 86 94 95 123 137 146 155 161 167 186 195 196 197 196 202 208 200 208 218 206 201 206 213 219 225 220 216
234 243 244 259 240 225 62 47 32 12 17 51 66 84 91 79 71 62 57 66 98 132 147 158 161 174 197 205 198 189 189 197 198 196 219 220 197 205 213 214 216 220 220 221
231 231 44 39 61 77 65 55 30 14 25 42 56 57 77 89 69 35 15 8 358 2 145 164 173 183 202 207 187 188 190 198 198 197 214 205 203 213 217 214 217 218 216 216
255 196 206 179 74 62 23 336 335 338 345 355 356 25 30 23 37 21 354 340 332 311 250 212 195 195 205 200 190 191 199 201 199 203 214 210 211 217 223 217 217 218 216 208
253 245 263 245 286 298 298 297 300 318 311 307 316 333 350 347 355 329 311 306 301 285 265 233 204 205 208 202 196 203 208 210 216 219 220 216 216 230 234 234 229 222 220 206
260 264 261 268 302 313 295 286 290 295 300 301 312 315 311 314 321 311 300 297 286 280 274 253 227 220 215 205 201 205 214 218 226 225 222 221 211 222 258 237 216 200 205 206
295 306 302 310 308 297 287 293 296 293 293 297 302 309 306 302 299 295 288 278 274 275 273 254 237 232 223 214 211 212 220 223 230 230 227 223 216 213 213 225 236 220 204 193
320 313 303 304 306 298 293 290 292 290 282 281 285 285 290 290 289 285 281 277 275 274 271 255 248 242 227 222 220 222 227 228 231 233 228 226 223 222 220 218 216 218 233 203
278 275 277 279 282 283 280 275 274 275 277 276 277 273 271 275 280 281 283 283 284 275 265 255 250 247 233 228 227 228 231 232 231 235 233 235 232 229 226 219 215 210 209 211
273 269 270 270 270 272 271 272 274 278 282 281 277 278 276 277 281 281 277 276 275 277 269 257 253 248 234 230 229 230 232 233 231 230 231 229 227 229 227 215 213 217 220 207
276 271 272 275 275 278 276 276 277 279 279 279 279 281 283 283 285 281 277 275 275 276 267 261 260 251 236 228 232 235 236 236 227 227 231 230 226 225 222 219 220 216 219 202
278 276 275 276 275 280 285 284 282 281 277 278 289 287 280 277 277 283 287 286 283 279 268 258 252 253 247 236 231 237 236 234 230 226 227 230 232 232 226 223 223 222 220 205
274 274 277 280 281 281 283 285 285 282 276 273 277 278 275 276 279 281 283 282 280 276 269 265 260 256 256 246 238 235 236 235 232 233 229 223 230 230 226 226 224 222 224 215
282 281 279 280 280 276 277 279 282 283 282 277 276 275 273 275 279 281 281 281 279 274 269 267 262 262 258 254 246 247 241 237 231 229 229 232 229 233 235 232 228 226 227 223
297 290 287 283 278 274 274 274 274 275 278 277 274 272 275 276 278 278 275 278 279 270 268 260 255 257 258 265 248 249 243 238 237 236 234 235 233 235 241 241 240 237 230 222
317 309 300 291 280 285 289 288 278 273 274 276 277 279 280 279 280 278 271 271 275 280 276 271 265 276 298 277 261 260 254 245 236 235 234 236 233 230 235 236 235 232 223 214
321 316 313 307 298 297 297 297 293 288 280 276 278 279 279 281 285 288 290 295 290 306 303 298 341 109 293 280 271 267 262 252 246 243 243 243 235 226 226 227 226 226 220 211
308 302 301 304 309 302 297 295 297 297 293 288 286 280 279 281 283 282 289 311 1 347 330 352 211 254 267 275 263 256 256 249 247 242 237 240 236 222 215 217 221 214 205 204
308 306 306 301 295 293 288 284 284 286 284 289 293 303 299 293 287 298 320 323 317 284 301 288 252 242 255 275 272 265 257 247 240 238 239 243 240 232 214 206 203 204 206 206
300 298 304 299 296 291 287 289 293 293 298 304 304 305 311 318 314 312 287 285 298 281 273 286 280 251 255 260 259 256 251 237 234 236 235 242 247 244 224 206 197 199 194 205
286 286 283 282 285 285 289 296 303 314 316 309 311 318 330 330 323 322 316 305 295 285 279 279 281 279 269 258 259 259 254 254 257 258 253 246 249 254 236 219 209 197 204 215
Height
1467 1461 1459 1460 1462 1461 1465 1467 1475 1472 1469 1467 1468 1470 1474 1478 1481 1484 1488 1491 1494 1497 1500 1504 1506 1509 1510 1512 1513 1515 1516 1518 1519 1520 1521 1522 1523 1523 1523 1523 1524 1524 1525 1524
1470 1462 1460 1462 1460 1459 1461 1462 1465 1466 1468 1463 1467 1470 1475 1478 1481 1483 1488 1491 1494 1497 1499 1502 1505 1507 1509 1510 1511 1513 1514 1515 1516 1518 1518 1519 1520 1520 1521 1521 1522 1522 1522 1522
1477 1466 1465 1472 1461 1459 1459 1457 1460 1466 1465 1463 1466 1470 1474 1478 1481 1484 1487 1490 1492 1495 1498 1501 1503 1505 1507 1508 1510 1511 1513 1514 1515 1516 1516 1517 1517 1518 1518 1518 1519 1519 1520 1520
1477 1476 1488 1466 1451 1453 1456 1455 1455 1457 1459 1462 1466 1470 1474 1477 1480 1483 1487 1489 1492 1494 1497 1499 1501 1503 1505 1507 1508 1509 1510 1511 1512 1513 1513 1514 1514 1515 1515 1516 1516 1516 1516 1517
1478 1480 1475 1460 1453 1454 1459 1461 1457 1459 1461 1464 1467 1471 1475 1477 1480 1483 1486 1488 1491 1493 1496 1498 1499 1501 1503 1504 1505 1507 1508 1508 1509 1510 1511 1511 1511 1512 1512 1513 1513 1513 1513 1513
1477 1483 1482 1463 1452 1453 1458 1467 1460 1461 1463 1466 1468 1473 1477 1478 1480 1482 1485 1488 1490 1492 1494 1496 1498 1499 1501 1502 1503 1504 1505 1505 1506 1507 1507 1508 1508 1509 1509 1509 1510 1510 1510 1510
1477 1477 1467 1454 1453 1455 1471 1472 1464 1464 1466 1469 1471 1475 1479 1480 1482 1483 1485 1487 1489 1491 1493 1494 1496 1497 1498 1499 1500 1501 1502 1503 1504 1504 1504 1505 1505 1505 1506 1506 1507 1507 1507 1507
1472 1477 1472 1455 1455 1461 1468 1466 1467 1468 1469 1471 1473 1476 1478 1480 1482 1484 1485 1486 1488 1490 1491 1492 1493 1494 1495 1496 1497 1498 1499 1500 1500 1501 1501 1502 1502 1502 1502 1503 1503 1503 1503 1503
1463 1466 1462 1461 1462 1466 1468 1469 1470 1471 1473 1474 1475 1477 1478 1481 1482 1484 1484 1486 1487 1488 1489 1490 1490 1491 1492 1493 1494 1495 1496 1496 1497 1497 1498 1498 1498 1498 1499 1499 1500 1500 1500 1500
1460 1460 1461 1463 1465 1467 1469 1471 1472 1473 1474 1475 1476 1477 1479 1480 1482 1483 1484 1485 1485 1486 1486 1486 1487 1487 1488 1489 1490 1491 1492 1492 1493 1494 1494 1495 1495 1495 1496 1496 1496 1496 1497 1497
1462 1462 1463 1464 1467 1468 1469 1471 1472 1473 1474 1475 1476 1477 1479 1480 1481 1482 1482 1483 1483 1483 1483 1483 1483 1483 1484 1485 1486 1487 1488 1489 1489 1490 1490 1491 1491 1491 1492 1492 1493 1493 1493 1493
1464 1463 1464 1466 1467 1469 1470 1471 1472 1473 1474 1474 1476 1477 1478 1479 1479 1480 1480 1480 1480 1480 1480 1479 1479 1479 1480 1480 1481 1482 1483 1484 1485 1486 1486 1486 1486 1486 1487 1488 1489 1489 1489 1489
1464 1464 1465 1466 1467 1469 1471 1471 1472 1473 1473 1474 1475 1475 1476 1477 1477 1477 1477 1477 1477 1476 1476 1476 1476 1475 1475 1476 1477 1477 1478 1479 1481 1481 1482 1482 1482 1482 1482 1483 1484 1485 1485 1484
1465 1466 1465 1466 1468 1469 1470 1470 1471 1471 1472 1472 1473 1473 1474 1474 1474 1474 1474 1474 1473 1472 1471 1471 1471 1470 1470 1471 1472 1472 1473 1474 1475 1476 1477 1477 1477 1477 1478 1478 1477 1478 1480 1480
1465 1466 1466 1466 1467 1468 1468 1469 1469 1469 1469 1470 1470 1470 1470 1471 1470 1470 1470 1469 1469 1467 1466 1466 1466 1465 1466 1466 1466 1467 1468 1469 1470 1471 1472 1472 1473 1473 1474 1474 1473 1473 1474 1475
1464 1464 1464 1464 1465 1465 1466 1466 1466 1466 1466 1466 1466 1467 1467 1467 1466 1466 1465 1464 1463 1462 1461 1461 1460 1460 1460 1461 1461 1462 1463 1464 1465 1466 1467 1467 1468 1468 1469 1469 1469 1469 1469 1469
1462 1462 1462 1462 1462 1462 1463 1463 1462 1462 1462 1462 1462 1462 1462 1462 1462 1461 1460 1459 1458 1457 1456 1455 1455 1455 1455 1455 1456 1457 1458 1459 1460 1461 1462 1462 1462 1463 1464 1464 1465 1465 1465 1464
1461 1461 1460 1460 1459 1459 1459 1459 1458 1458 1458 1458 1458 1458 1458 1458 1457 1456 1455 1454 1453 1452 1451 1450 1450 1449 1450 1450 1451 1452 1453 1454 1455 1456 1457 1457 1458 1459 1460 1460 1461 1461 1460 1461
1457 1457 1457 1456 1456 1456 1455 1455 1455 1454 1454 1454 1454 1454 1454 1453 1452 1452 1451 1449 1448 1447 1446 1445 1445 1445 1445 1445 1446 1447 1448 1449 1450 1451 1452 1453 1454 1454 1455 1456 1456 1456 1456 1456
1454 1453 1453 1452 1452 1452 1451 1451 1452 1451 1450 1451 1450 1450 1449 1448 1448 1447 1446 1445 1443 1442 1441 1441 1440 1440 1440 1440 1441 1442 1443 1444 1445 1446 1447 1448 1449 1449 1451 1451 1451 1452 1452 1452
1451 1450 1450 1449 1449 1448 1447 1447 1447 1447 1447 1447 1447 1446 1445 1444 1443 1442 1441 1440 1439 1438 1437 1437 1437 1436 1436 1436 1437 1438 1439 1440 1440 1442 1443 1443 1444 1444 1446 1446 1447 1447 1447 1447
1449 1448 1447 1446 1445 1445 1444 1443 1443 1442 1442 1442 1442 1442 1441 1440 1439 1438 1437 1436 1435 1434 1434 1433 1433 1432 1432 1433 1433 1434 1435 1435 1436 1437 1438 1438 1439 1439 1440 1441 1442 1442 1443 1443
1447 1446 1445 1444 1443 1442 1441 1440 1440 1439 1439 1439 1439 1438 1437 1436 1435 1434 1432 1432 1431 1431 1430 1430 1430 1429 1429 1429 1429 1430 1431 1431 1432 1433 1433 1434 1435 1435 1435 1436 1437 1438 1438 1438
1445 1444 1443 1442 1441 1440 1439 1438 1438 1436 1436 1435 1435 1434 1433 1432 1431 1430 1429 1428 1428 1427 1427 1426 1426 1426 1426 1426 1426 1426 1427 1427 1428 1429 1429 1430 1430 1430 1431 1432 1432 1433 1433 1434
1444 1443 1441 1440 1440 1439 1438 1437 1435 1434 1434 1433 1432 1432 1431 1430 1429 1428 1427 1426 1425 1424 1424 1424 1424 1423 1423 1423 1424 1423 1424 1424 1425 1425 1425 1426 1426 1427 1427 1428 1429 1429 1429 1430
1443 1442 1441 1440 1439 1438 1436 1435 1434 1433 1431 1431 1430 1430 1428 1428 1426 1425 1425 1424 1423 1422 1422 1421 1421 1421 1421 1421 1421 1421 1421 1421 1421 1422 1422 1423 1423 1424 1424 1424 1425 1425 1426 1427
1442 1441 1439 1438 1437 1436 1435 1434 1433 1432 1431 1430 1429 1428 1427 1426 1425 1424 1423 1422 1421 1420 1420 1419 1419 1419 1419 1419 1418 1419 1419 1419 1419 1419 1420 1420 1420 1421 1421 1421 1422 1423 1424 1424